Time,TemperatureF,DewpointF,PressureIn,WindDirection,WindDirectionDegrees,WindSpeedMPH,WindSpeedGustMPH,Humidity,HourlyPrecipIn,Conditions,Clouds,dailyrainin,SolarRadiationWatts/m^2,SoftwareType,DateUTC
2013-10-26 00:11:00,32.0,32.0,-100.00,North,2,4.0,8.0,100,0.00,,,0.00,0.000000,,2013-10-26 08:11:00,
2013-10-26 00:22:00,32.0,32.0,-100.00,North,2,4.0,8.0,100,0.00,,,0.00,0.000000,,2013-10-26 08:22:00,
2013-10-26 00:32:00,32.0,32.0,-100.00,North,2,4.0,8.0,100,0.00,,,0.00,0.000000,,2013-10-26 08:32:00,
2013-10-26 00:33:00,31.0,31.0,-100.00,NE,43,2.0,6.0,100,0.00,,,0.00,0.000000,,2013-10-26 08:33:00,
2013-10-26 00:52:00,31.0,31.0,-100.00,NE,43,2.0,6.0,100,0.00,,,0.00,0.000000,,2013-10-26 08:52:00,
2013-10-26 01:02:00,31.0,31.0,-100.00,NE,43,2.0,6.0,100,0.00,,,0.00,0.000000,,2013-10-26 09:02:00,
2013-10-26 01:11:00,31.0,31.0,-100.00,NE,43,2.0,6.0,100,0.00,,,0.00,0.000000,,2013-10-26 09:11:00,
2013-10-26 01:22:00,31.0,31.0,-100.00,NE,43,2.0,6.0,100,0.00,,,0.00,0.000000,,2013-10-26 09:22:00,
2013-10-26 01:33:00,31.0,31.0,-100.00,WSW,249,1.0,4.0,100,0.00,,,0.00,0.000000,,2013-10-26 09:33:00,
2013-10-26 01:53:00,31.0,31.0,-100.00,WSW,249,1.0,4.0,100,0.00,,,0.00,0.000000,,2013-10-26 09:53:00,
2013-10-26 02:03:00,31.0,31.0,-100.00,WSW,249,1.0,4.0,100,0.00,,,0.00,0.000000,,2013-10-26 10:03:00,
2013-10-26 02:13:00,31.0,31.0,-100.00,WSW,249,1.0,4.0,100,0.00,,,0.00,0.000000,,2013-10-26 10:13:00,
2013-10-26 02:22:00,31.0,31.0,-100.00,WSW,249,1.0,4.0,100,0.00,,,0.00,0.000000,,2013-10-26 10:22:00,
2013-10-26 02:33:00,30.0,30.0,-100.00,North,352,3.0,7.0,100,0.00,,,0.00,0.000000,,2013-10-26 10:33:00,
2013-10-26 02:53:00,30.0,30.0,-100.00,North,352,3.0,7.0,100,0.00,,,0.00,0.000000,,2013-10-26 10:53:00,
2013-10-26 03:03:00,30.0,30.0,-100.00,North,352,3.0,7.0,100,0.00,,,0.00,0.000000,,2013-10-26 11:03:00,
2013-10-26 03:11:00,30.0,30.0,-100.00,North,352,3.0,7.0,100,0.00,,,0.00,0.000000,,2013-10-26 11:11:00,
2013-10-26 03:21:00,30.0,30.0,-100.00,North,352,3.0,7.0,100,0.00,,,0.00,0.000000,,2013-10-26 11:21:00,
2013-10-26 03:52:00,29.0,29.0,-100.00,WSW,253,3.0,7.0,100,0.00,,,0.00,0.000000,,2013-10-26 11:52:00,
2013-10-26 04:01:00,29.0,29.0,-100.00,WSW,253,3.0,7.0,100,0.00,,,0.00,0.000000,,2013-10-26 12:01:00,
2013-10-26 04:12:00,29.0,29.0,-100.00,WSW,253,3.0,7.0,100,0.00,,,0.00,0.000000,,2013-10-26 12:12:00,
2013-10-26 04:21:00,29.0,29.0,-100.00,WSW,253,3.0,7.0,100,0.00,,,0.00,0.000000,,2013-10-26 12:21:00,
2013-10-26 04:31:00,29.0,29.0,-100.00,WSW,253,3.0,7.0,100,0.00,,,0.00,0.000000,,2013-10-26 12:31:00,
2013-10-26 04:52:00,28.0,28.0,-100.00,WSW,252,3.0,6.0,100,0.00,,,0.00,0.000000,,2013-10-26 12:52:00,
2013-10-26 05:01:00,28.0,28.0,-100.00,WSW,252,3.0,6.0,100,0.00,,,0.00,0.000000,,2013-10-26 13:01:00,
2013-10-26 05:11:00,28.0,28.0,-100.00,WSW,252,3.0,6.0,100,0.00,,,0.00,0.000000,,2013-10-26 13:11:00,
2013-10-26 05:21:00,28.0,28.0,-100.00,WSW,252,3.0,6.0,100,0.00,,,0.00,0.000000,,2013-10-26 13:21:00,
2013-10-26 05:32:00,28.0,28.0,-100.00,WSW,252,3.0,6.0,100,0.00,,,0.00,0.000000,,2013-10-26 13:32:00,
2013-10-26 05:52:00,28.0,28.0,-100.00,West,271,3.0,7.0,100,0.00,,,0.00,0.000000,,2013-10-26 13:52:00,
2013-10-26 06:01:00,28.0,28.0,-100.00,West,271,3.0,7.0,100,0.00,,,0.00,0.000000,,2013-10-26 14:01:00,
2013-10-26 06:11:00,28.0,28.0,-100.00,West,271,3.0,7.0,100,0.00,,,0.00,0.000000,,2013-10-26 14:11:00,
2013-10-26 06:21:00,28.0,28.0,-100.00,West,271,3.0,7.0,100,0.00,,,0.00,0.000000,,2013-10-26 14:21:00,
2013-10-26 06:31:00,28.0,28.0,-100.00,West,271,3.0,7.0,100,0.00,,,0.00,0.000000,,2013-10-26 14:31:00,
2013-10-26 06:33:00,27.0,27.0,-100.00,NNW,331,2.0,5.0,100,0.00,,,-99.99,0.000000,,2013-10-26 14:33:00,
2013-10-26 06:52:00,27.0,27.0,-100.00,NNW,331,2.0,5.0,100,0.00,,,-99.99,0.000000,,2013-10-26 14:52:00,
2013-10-26 07:02:00,27.0,27.0,-100.00,NNW,331,2.0,5.0,100,0.00,,,-99.99,0.000000,,2013-10-26 15:02:00,
2013-10-26 07:12:00,27.0,27.0,-100.00,NNW,331,2.0,5.0,100,0.00,,,-99.99,0.000000,,2013-10-26 15:12:00,
2013-10-26 07:23:00,27.0,27.0,-100.00,NNW,331,2.0,5.0,100,0.00,,,-99.99,0.000000,,2013-10-26 15:23:00,
2013-10-26 07:33:00,27.0,27.0,-100.00,North,1,5.0,8.0,100,0.00,,,-99.99,0.000000,,2013-10-26 15:33:00,
2013-10-26 07:55:00,27.0,27.0,-100.00,North,1,5.0,8.0,100,0.00,,,-99.99,0.000000,,2013-10-26 15:55:00,
2013-10-26 08:05:00,27.0,27.0,-100.00,North,1,5.0,8.0,100,0.00,,,-99.99,0.000000,,2013-10-26 16:05:00,
2013-10-26 08:14:00,27.0,27.0,-100.00,North,1,5.0,8.0,100,0.00,,,-99.99,0.000000,,2013-10-26 16:14:00,
2013-10-26 08:24:00,27.0,27.0,-100.00,North,1,5.0,8.0,100,0.00,,,-99.99,0.000000,,2013-10-26 16:24:00,
2013-10-26 08:33:00,27.0,27.0,-100.00,NNW,334,3.0,6.0,100,0.00,,,0.00,0.000000,,2013-10-26 16:33:00,
2013-10-26 08:53:00,27.0,27.0,-100.00,NNW,334,3.0,6.0,100,0.00,,,0.00,0.000000,,2013-10-26 16:53:00,
2013-10-26 09:03:00,27.0,27.0,-100.00,NNW,334,3.0,6.0,100,0.00,,,0.00,0.000000,,2013-10-26 17:03:00,
2013-10-26 09:12:00,27.0,27.0,-100.00,NNW,334,3.0,6.0,100,0.00,,,0.00,0.000000,,2013-10-26 17:12:00,
2013-10-26 09:23:00,27.0,27.0,-100.00,NNW,334,3.0,6.0,100,0.00,,,0.00,0.000000,,2013-10-26 17:23:00,
2013-10-26 09:52:00,28.0,28.0,-100.00,NNW,346,2.0,3.0,100,0.00,,,0.00,0.000000,,2013-10-26 17:52:00,
2013-10-26 10:02:00,28.0,28.0,-100.00,NNW,346,2.0,3.0,100,0.00,,,0.00,0.000000,,2013-10-26 18:02:00,
2013-10-26 10:12:00,28.0,28.0,-100.00,NNW,346,2.0,3.0,100,0.00,,,0.00,0.000000,,2013-10-26 18:12:00,
2013-10-26 10:21:00,28.0,28.0,-100.00,NNW,346,2.0,3.0,100,0.00,,,0.00,0.000000,,2013-10-26 18:21:00,
2013-10-26 10:32:00,28.0,28.0,-100.00,NNW,346,2.0,3.0,100,0.00,,,0.00,0.000000,,2013-10-26 18:32:00,
2013-10-26 10:52:00,28.0,28.0,-100.00,North,8,3.0,6.0,100,0.00,,,0.00,32.000000,,2013-10-26 18:52:00,
2013-10-26 11:01:00,28.0,28.0,-100.00,North,8,3.0,6.0,100,0.00,,,0.00,32.000000,,2013-10-26 19:01:00,
2013-10-26 11:12:00,28.0,28.0,-100.00,North,8,3.0,6.0,100,0.00,,,0.00,32.000000,,2013-10-26 19:12:00,
2013-10-26 11:22:00,28.0,28.0,-100.00,North,8,3.0,6.0,100,0.00,,,0.00,32.000000,,2013-10-26 19:22:00,
2013-10-26 11:32:00,28.0,28.0,-100.00,North,8,3.0,6.0,100,0.00,,,0.00,32.000000,,2013-10-26 19:32:00,
2013-10-26 11:33:00,28.0,28.0,-100.00,North,353,2.0,4.0,99,0.00,,,-99.99,77.000000,,2013-10-26 19:33:00,
2013-10-26 11:52:00,28.0,28.0,-100.00,North,353,2.0,4.0,99,0.00,,,-99.99,77.000000,,2013-10-26 19:52:00,
2013-10-26 12:02:00,28.0,28.0,-100.00,North,353,2.0,4.0,99,0.00,,,-99.99,77.000000,,2013-10-26 20:02:00,
2013-10-26 12:12:00,28.0,28.0,-100.00,North,353,2.0,4.0,99,0.00,,,-99.99,77.000000,,2013-10-26 20:12:00,
2013-10-26 12:22:00,28.0,28.0,-100.00,North,353,2.0,4.0,99,0.00,,,-99.99,77.000000,,2013-10-26 20:22:00,
2013-10-26 12:33:00,29.0,29.0,-100.00,NNE,24,1.0,3.0,99,0.00,,,0.00,67.000000,,2013-10-26 20:33:00,
2013-10-26 12:52:00,29.0,29.0,-100.00,NNE,24,1.0,3.0,99,0.00,,,0.00,67.000000,,2013-10-26 20:52:00,
2013-10-26 13:02:00,29.0,29.0,-100.00,NNE,24,1.0,3.0,99,0.00,,,0.00,67.000000,,2013-10-26 21:02:00,
2013-10-26 13:11:00,29.0,29.0,-100.00,NNE,24,1.0,3.0,99,0.00,,,0.00,67.000000,,2013-10-26 21:11:00,
2013-10-26 13:21:00,29.0,29.0,-100.00,NNE,24,1.0,3.0,99,0.00,,,0.00,67.000000,,2013-10-26 21:21:00,
2013-10-26 13:33:00,28.0,28.0,-100.00,NNW,332,1.0,3.0,99,0.00,,,-99.99,66.000000,,2013-10-26 21:33:00,
2013-10-26 13:54:00,28.0,28.0,-100.00,NNW,332,1.0,3.0,99,0.00,,,-99.99,66.000000,,2013-10-26 21:54:00,
2013-10-26 14:03:00,28.0,28.0,-100.00,NNW,332,1.0,3.0,99,0.00,,,-99.99,66.000000,,2013-10-26 22:03:00,
2013-10-26 14:13:00,28.0,28.0,-100.00,NNW,332,1.0,3.0,99,0.00,,,-99.99,66.000000,,2013-10-26 22:13:00,
2013-10-26 14:23:00,28.0,28.0,-100.00,NNW,332,1.0,3.0,99,0.00,,,-99.99,66.000000,,2013-10-26 22:23:00,
2013-10-26 14:33:00,29.0,29.0,-100.00,WNW,299,2.0,4.0,98,0.00,,,-99.99,104.000000,,2013-10-26 22:33:00,
2013-10-26 14:54:00,29.0,29.0,-100.00,WNW,299,2.0,4.0,98,0.00,,,-99.99,104.000000,,2013-10-26 22:54:00,
2013-10-26 15:03:00,29.0,29.0,-100.00,WNW,299,2.0,4.0,98,0.00,,,-99.99,104.000000,,2013-10-26 23:03:00,
2013-10-26 15:12:00,29.0,29.0,-100.00,WNW,299,2.0,4.0,98,0.00,,,-99.99,104.000000,,2013-10-26 23:12:00,
2013-10-26 15:22:00,29.0,29.0,-100.00,WNW,299,2.0,4.0,98,0.00,,,-99.99,104.000000,,2013-10-26 23:22:00,
2013-10-26 15:52:00,28.0,27.0,-100.00,NW,324,3.0,5.0,96,0.00,,,-99.99,133.000000,,2013-10-26 23:52:00,
2013-10-26 16:01:00,28.0,27.0,-100.00,NW,324,3.0,5.0,96,0.00,,,-99.99,133.000000,,2013-10-27 00:01:00,
2013-10-26 16:11:00,28.0,27.0,-100.00,NW,324,3.0,5.0,96,0.00,,,-99.99,133.000000,,2013-10-27 00:11:00,
2013-10-26 16:21:00,28.0,27.0,-100.00,NW,324,3.0,5.0,96,0.00,,,-99.99,133.000000,,2013-10-27 00:21:00,
2013-10-26 16:32:00,28.0,27.0,-100.00,NW,324,3.0,5.0,96,0.00,,,-99.99,133.000000,,2013-10-27 00:32:00,
2013-10-26 16:52:00,28.0,26.0,-100.00,NNW,336,2.0,3.0,91,0.00,,,-99.99,118.000000,,2013-10-27 00:52:00,
2013-10-26 17:01:00,28.0,26.0,-100.00,NNW,336,2.0,3.0,91,0.00,,,-99.99,118.000000,,2013-10-27 01:01:00,
2013-10-26 17:11:00,28.0,26.0,-100.00,NNW,336,2.0,3.0,91,0.00,,,-99.99,118.000000,,2013-10-27 01:11:00,
2013-10-26 17:22:00,28.0,26.0,-100.00,NNW,336,2.0,3.0,91,0.00,,,-99.99,118.000000,,2013-10-27 01:22:00,
2013-10-26 17:31:00,28.0,26.0,-100.00,NNW,336,2.0,3.0,91,0.00,,,-99.99,118.000000,,2013-10-27 01:31:00,
2013-10-26 17:52:00,28.0,26.0,-100.00,West,278,1.0,3.0,91,0.00,,,-99.99,94.000000,,2013-10-27 01:52:00,
2013-10-26 18:02:00,28.0,26.0,-100.00,West,278,1.0,3.0,91,0.00,,,-99.99,94.000000,,2013-10-27 02:02:00,
2013-10-26 18:12:00,28.0,26.0,-100.00,West,278,1.0,3.0,91,0.00,,,-99.99,94.000000,,2013-10-27 02:12:00,
2013-10-26 18:21:00,28.0,26.0,-100.00,West,278,1.0,3.0,91,0.00,,,-99.99,94.000000,,2013-10-27 02:21:00,
2013-10-26 18:32:00,28.0,26.0,-100.00,West,278,1.0,3.0,91,0.00,,,-99.99,94.000000,,2013-10-27 02:32:00,
2013-10-26 18:33:00,26.0,26.0,-100.00,NNW,340,4.0,7.0,99,0.00,,,-99.99,3.000000,,2013-10-27 02:33:00,
2013-10-26 18:52:00,26.0,26.0,-100.00,NNW,340,4.0,7.0,99,0.00,,,-99.99,3.000000,,2013-10-27 02:52:00,
2013-10-26 19:02:00,26.0,26.0,-100.00,NNW,340,4.0,7.0,99,0.00,,,-99.99,3.000000,,2013-10-27 03:02:00,
2013-10-26 19:11:00,26.0,26.0,-100.00,NNW,340,4.0,7.0,99,0.00,,,-99.99,3.000000,,2013-10-27 03:11:00,
2013-10-26 19:21:00,26.0,26.0,-100.00,NNW,340,4.0,7.0,99,0.00,,,-99.99,3.000000,,2013-10-27 03:21:00,
2013-10-26 19:33:00,26.0,26.0,-100.00,NNW,334,5.0,10.0,98,0.00,,,-99.99,0.000000,,2013-10-27 03:33:00,
2013-10-26 19:55:00,26.0,26.0,-100.00,NNW,334,5.0,10.0,98,0.00,,,-99.99,0.000000,,2013-10-27 03:55:00,
2013-10-26 20:02:00,-999.0,-99.9,-100.00,NNW,334,5.0,10.0,-999,-99.99,,,-99.99,0.000000,,2013-10-27 04:02:00,
2013-10-26 20:13:00,26.0,26.0,-100.00,NNW,334,5.0,10.0,98,0.00,,,-99.99,0.000000,,2013-10-27 04:13:00,
2013-10-26 20:24:00,26.0,26.0,-100.00,NNW,334,5.0,10.0,98,0.00,,,-99.99,0.000000,,2013-10-27 04:24:00,
2013-10-26 20:33:00,26.0,25.0,-100.00,NNW,348,5.0,9.0,96,0.00,,,-99.99,0.000000,,2013-10-27 04:33:00,
2013-10-26 20:54:00,26.0,25.0,-100.00,NNW,348,5.0,9.0,96,0.00,,,-99.99,0.000000,,2013-10-27 04:54:00,
2013-10-26 21:04:00,26.0,25.0,-100.00,NNW,348,5.0,9.0,96,0.00,,,-99.99,0.000000,,2013-10-27 05:04:00,
2013-10-26 21:12:00,26.0,25.0,-100.00,NNW,348,5.0,9.0,96,0.00,,,-99.99,0.000000,,2013-10-27 05:12:00,
2013-10-26 21:23:00,26.0,25.0,-100.00,NNW,348,5.0,9.0,96,0.00,,,-99.99,0.000000,,2013-10-27 05:23:00,
2013-10-26 21:52:00,27.0,25.0,-100.00,North,358,1.0,5.0,91,0.00,,,-99.99,0.000000,,2013-10-27 05:52:00,
2013-10-26 22:01:00,27.0,25.0,-100.00,North,358,1.0,5.0,91,0.00,,,-99.99,0.000000,,2013-10-27 06:01:00,
2013-10-26 22:13:00,27.0,25.0,-100.00,North,358,1.0,5.0,91,0.00,,,-99.99,0.000000,,2013-10-27 06:13:00,
2013-10-26 22:21:00,27.0,25.0,-100.00,North,358,1.0,5.0,91,0.00,,,-99.99,0.000000,,2013-10-27 06:21:00,
2013-10-26 22:32:00,27.0,25.0,-100.00,North,358,1.0,5.0,91,0.00,,,-99.99,0.000000,,2013-10-27 06:32:00,
2013-10-26 22:53:00,28.0,25.0,-100.00,NNW,346,0.0,6.0,88,0.00,,,0.00,0.000000,,2013-10-27 06:53:00,
2013-10-26 23:02:00,28.0,25.0,-100.00,NNW,346,0.0,6.0,88,0.00,,,0.00,0.000000,,2013-10-27 07:02:00,
2013-10-26 23:11:00,28.0,25.0,-100.00,NNW,346,0.0,6.0,88,0.00,,,0.00,0.000000,,2013-10-27 07:11:00,
2013-10-26 23:21:00,28.0,25.0,-100.00,NNW,346,0.0,6.0,88,0.00,,,0.00,0.000000,,2013-10-27 07:21:00,
2013-10-26 23:32:00,28.0,25.0,-100.00,NNW,346,0.0,6.0,88,0.00,,,0.00,0.000000,,2013-10-27 07:32:00,
2013-10-26 23:52:00,29.0,22.0,-100.00,NNW,328,2.0,7.0,76,0.00,,,0.00,0.000000,,2013-10-27 07:52:00,